Regional Weather Roundup
Issued by NWS

Home | Current Version | Previous Version | Text Only | Print | Product List | Glossary Off
Versions: 1 2 3 4 5 6 7 8 9 10 11 12 13 14 15 16 17 18 19 20 21 22 23 24 25 26 27 28 29 30 31 32 33 34 35 36 37 38 39 40 41 42 43 44 45 46 47 48 49 50

000
ASUS45 KTFX 310419
RWRMT
MONTANA HOURLY WEATHER ROUNDUP
NATIONAL WEATHER SERVICE GREAT FALLS MT
919 PM MST FRI JAN 30 2015

NOTE: "FAIR" INDICATES FEW OR NO CLOUDS BELOW 12000 FEET WITH NO
SIGNIFICANT WEATHER AND/OR OBSTRUCTIONS TO VISIBILITY.

* THESE STATIONS ARE NOT UNDER NWS QUALITY CONTROL. THEY DO NOT
   REPORT WEATHER SUCH AS PRECIPITATION OR FOG.

MTZ001>007-043-310500-
WEST OF THE DIVIDE
CITY           SKY/WX    TMP DP  RH WIND       PRES   REMARKS
KALISPELL      FOG       25  25 100 N3        30.18F VSB 1/2
MISSOULA       FOG       25  21  85 SE5       30.19F WCI  19
BUTTE          CLEAR     21  18  88 SE5       30.11F WCI  14
MULLAN PASS    PTCLDY    27  21  78 W5        30.11F WCI  21
* ANACONDA     PTCLDY    25  18  75 SE5        N/A   WCI  19
* ESSEX        N/A       19  16  88 S2         N/A
* EUREKA APT   PTCLDY    25  21  85 CALM      30.17F
* HAMILTON APT CLEAR     27  21  78 S3        30.16F
* LIBBY APT    CLOUDY    28  25  89 CALM      30.20F
* LINCOLN      N/A       22  16  78 NW1        N/A
* LOOKOUT PASS N/A       28  25  89 N4         N/A
* POLSON       N/A       23  22  96 SE2        N/A
* RONAN APT    CLEAR     25  23  92 N/A        N/A
* SEELEY LAKE  N/A       17  13  84 N2         N/A
* THOMP F APT  PTCLDY    33  11  40 NW14G24    N/A   WCI  23
$$

MTZ008-052>055-310500-
SOUTHWEST MONTANA
CITY           SKY/WX    TMP DP  RH WIND       PRES   REMARKS
BOZEMAN        CLEAR     25  21  85 S8        30.11F WCI  16
DILLON         PTCLDY    27  16  63 S6        30.10F WCI  20
* W YELLOWSTON MOCLDY    14  10  84 N/A        N/A
* THREE FORKS  CLEAR     23  23 100 N/A        N/A
* TWIN BRIDGES CLEAR     21  12  68 E5         N/A   WCI  14
* BOULDER HILL N/A       29  15  56 SW9        N/A   WCI  21
* MONIDA PASS  N/A       13  11  92 W4         N/A
* RAYNOLDS PAS N/A       21  19  92 N3         N/A
* WHITEHALL    N/A       25  17  72 NW1G7      N/A
* WISE RIVER   N/A       20  13  74 W7         N/A   WCI  11
$$

MTZ009>010-012-014-046-048-049-054-310500-
EAST SLOPES AND CENTRAL MONTANA
CITY           SKY/WX    TMP DP  RH WIND       PRES   REMARKS
CUT BANK       CLEAR     36  18  48 W13       29.98F WCI  27
GREAT FALLS    CLEAR     32  19  59 SW9       30.01F WCI  24
HELENA         CLEAR     30  21  69 CALM      30.09F
MALMSTROM AFB  CLEAR     32  21  64 SW6       30.02F WCI  26
* CONRAD       CLEAR     27  21  78 CALM       N/A
* DEARBORN     N/A       38  19  46 S5         N/A   WCI  34
* EAST GLACIER N/A       34  16  48 W22G29     N/A   WCI  22
* MONARCH      N/A       32  10  40 NE3        N/A
* PENDROY      N/A       32  14  47 N1         N/A
* ROGERS PASS  N/A       30  16  56 SE9G20     N/A   WCI  22
* SWEET GRASS  N/A       31  26  82 S15        N/A   WCI  20
* WHITE SULPH  N/A       27  16  63 E7         N/A   WCI  19
$$

MTZ011-013-016-021-035-040-045-047-050-051-310500-
NORTH CENTRAL MONTANA
CITY           SKY/WX    TMP DP  RH WIND       PRES   REMARKS
HAVRE          CLEAR     27  23  85 E3        30.03F
LEWISTOWN      CLEAR     30  18  61 E10       30.01F WCI  21
* CHINOOK      CLEAR     28  27  96 E9        30.04F WCI  19
* CHESTER      N/A       31  25  78 SE2        N/A
* DENTON       N/A       28  18  66 SE6        N/A   WCI  21
* GEYSER       N/A       25  17  72 SW9        N/A   WCI  16
* JUDITH GAP   N/A       28  15  58 S7         N/A   WCI  21
* LOMA         N/A       33  24  70 NE8        N/A   WCI  26
$$

MTZ017>020-022>027-061-062-310500-
NORTHEAST MONTANA
CITY           SKY/WX    TMP DP  RH WIND       PRES   REMARKS
GLASGOW        CLEAR     30  27  89 E12       30.10F WCI  20
GLENDIVE       CLEAR     28  25  89 E5        30.14F WCI  22
JORDAN         CLEAR     27  25  92 E3        30.08F
SIDNEY         CLEAR     27  25  92 N6        30.19F WCI  20
WOLF POINT     CLEAR     30  27  89 E10       30.16F WCI  21
* BEAVER HILL  N/A       30  24  78 E6         N/A   WCI  24
* CIRCLE       N/A       31  26  82 N/A        N/A
* LINDSAY DVD  N/A       27  24  88 E4         N/A
* NAVAJO       N/A       27  25  92 NE6        N/A   WCI  20
* PLENTYWOOD A CLEAR     23  21  92 NE10      30.19R VSB 1 1/4 WCI  13
* POPLAR APT   CLEAR     28  27  96 N/A       30.17F
* SACO         N/A       25  24  96 N/A        N/A
* SCOBEY APT   CLEAR     28  21  75 N9         N/A   WCI  19
$$

MTZ028>042-056>058-310500-
SOUTHCENTRAL AND SOUTHEAST MONTANA
CITY           SKY/WX    TMP DP  RH WIND       PRES   REMARKS
BAKER          CLEAR     27  23  85 CALM      30.13F
BILLINGS       PTCLDY    37  25  62 SW13      30.08F WCI  29
LIVINGSTON     PTCLDY    30  18  61 W13       30.08S WCI  20
MILES CITY     PTCLDY    30  25  82 S6        30.11F WCI  24
* BIG TIMBER A PTCLDY    30  18  61 SW6       30.08F WCI  24
* FORSYTH APT  PTCLDY    30  25  82 CALM      30.10F
* LAUREL APT   MOCLDY    34  19  54 N/A        N/A
* ROUNDUP APT  CLEAR     34  16  48 N/A        N/A
* ALZADA       N/A       27  22  81 E1         N/A
* HYSHAM       N/A       35  14  42 E1         N/A
* LAME DEER    N/A       37  18  46 SE6        N/A   WCI  32
* REED POINT   N/A       27  18  69 N/A        N/A
$$

REGIONAL REPORTS...DAKOTAS
CITY           SKY/WX    TMP DP  RH WIND       PRES   REMARKS
WILLISTON      FOG       27  21  78 NE13      30.20S WCI  16
DICKINSON      CLEAR     25  21  85 NW3       30.12F
BEACH          CLEAR     25  25 100 CALM      30.14F
CROSBY         CLOUDY    23  23 100 N8        30.23S WCI  14
TIOGA          FOG       21  21 100 N10       30.23R WCI  10
WATFORD CITY   CLEAR     25  25 100 NE6       30.16F WCI  18
BISMARCK       CLEAR     25  25 100 CALM      30.19F
GRAND FORKS    CLOUDY    25  18  75 N18       30.19R WCI  11
FARGO          MOCLDY    27  21  78 NW10      30.16R WCI  18
BUFFALO SD     PTCLDY    30  23  75 E5        30.07F WCI  25
RAPID CITY     CLOUDY    28  21  75 N9        30.12F WCI  19
$$

REGIONAL REPORTS...WYOMING/IDAHO/WASHINGTON
CITY           SKY/WX    TMP DP  RH WIND       PRES   REMARKS
GILLETTE       CLOUDY    27  23  85 S7        30.10F WCI  19
SHERIDAN       MOCLDY    27  19  72 CALM      30.07F
CODY           MOCLDY    30  21  69 S6        30.08F WCI  24
YELLOWSTONE LA MOCLDY     3   0  87 CALM      30.12F
SALMON         CLOUDY    27  21  78 E7        30.24F WCI  19
MULLAN PASS    PTCLDY    27  21  78 W5        30.11S WCI  21
SAND POINT     CLOUDY    32  32 100 SW7       30.24F WCI  25
SPOKANE        CLOUDY    28  28 100 CALM      30.24F
$$

REGIONAL REPORTS...ALBERTA
CITY           SKY/WX    TMP DP  RH WIND       PRES   REMARKS
CALGARY        FOG       27  25  92 NE13G20   30.14R VSB 1 1/2 WCI  16
LETHBRIDGE     FOG       25  25 100 NW9       30.04R VSB 1/2  WCI  16
MEDICINE HAT   CLOUDY    30  28  92 E15G23    30.08S WCI  19
EDMONTON       LGT SNOW  10   5  80 NE16      30.35R VSB 2    WCI  -7
WATERTON GATE  N/A       37  16  42 SW20G28    N/A   WCI  27
CARDSTON       N/A       36  18  48 W5         N/A   WCI  32
MILK RIVER     N/A       28  23  81 S7         N/A   WCI  21
$$

REGIONAL REPORTS...SASKATCHEWAN
CITY           SKY/WX    TMP DP  RH WIND       PRES   REMARKS
SWIFT CURRENT  LGT SNOW  19  18  96 E20       30.16R VSB 1 1/4 WCI   3
REGINA         LGT SNOW  16  12  84 NE13      30.26R WCI   2
VAL MARIE      N/A       27  27 100 E8         N/A   WCI  19
ASSINIBOIA     N/A       19  18  96 NE12       N/A   WCI   6
CORONACH       N/A       25  23  92 NE8        N/A   WCI  16

$$




USA.gov is the U.S. government's official web portal to all federal, state and local government web resources and services.